Location: Góry Miechowskie
(50.3599°N, 20.1803°E)
Time: 22:05:35
(UTC+00:00)

S-56A Canister/Altair - Pass Details

Date: 19 September 2024
Orbit: 636 x 2487 km, 38.9° (Epoch: 09 October)

Event Time Altitude Azimuth Distance (km) Brightness Sun altitude
Rises 17:17:37 0° 238° (WSW) 3,133 11.5 -6.3°
Reaches altitude 10° 17:20:01 10° 226° (SW) 2,350 10.6 -6.7°
Maximum altitude 17:24:40 29° 168° (SSE) 1,692 9.1 -7.4°
Drops below altitude 10° 17:30:52 10° 112° (ESE) 3,202 10.0 -8.4°
Enters shadow 17:31:08 - 111° (ESE) 3,285 10.1 -8.4°
Sets 17:34:44 0° 103° (ESE) 4,508 - -9.0°
